This is the latest recevied weather packets stored in our database for station/object DB0TV-13. If no packets are shown the sender has not sent any weather packets the latest 10 day(s).
| Time | Temp. | Humidity | Pressure | Rain* | Wind** | Luminosity | Snow |
|---|---|---|---|---|---|---|---|
| 1777470020 | 16.67° C | 39% | 1024.8 hPa | 0 mm | - | 701 W/m² | - |
| 1777469420 | 16.67° C | 39% | 1024.8 hPa | 0 mm | - | 722 W/m² | - |
| 1777468820 | 16.67° C | 38% | 1025 hPa | 0 mm | - | 738 W/m² | - |
| 1777468220 | 16.11° C | 40% | 1024.9 hPa | 0 mm | - | 754 W/m² | - |
| 1777467620 | 15.56° C | 40% | 1024.9 hPa | 0 mm | - | 765 W/m² | - |
| 1777467020 | 16.11° C | 39% | 1025 hPa | 0 mm | - | 775 W/m² | - |
| 1777466420 | 16.11° C | 38% | 1024.9 hPa | 0 mm | - | 789 W/m² | - |
| 1777465820 | 16.67° C | 39% | 1025 hPa | 0 mm | - | 797 W/m² | - |
| 1777465220 | 16.11° C | 39% | 1024.9 hPa | 0 mm | - | 805 W/m² | - |
| 1777464620 | 16.67° C | 39% | 1025 hPa | 0 mm | - | 810 W/m² | - |
| 1777464020 | 16.11° C | 38% | 1025 hPa | 0 mm | - | 816 W/m² | - |
| 1777463420 | 16.11° C | 36% | 1025 hPa | 0 mm | - | 820 W/m² | - |
| 1777462820 | 15.56° C | 35% | 1025.1 hPa | 0 mm | - | 824 W/m² | - |
| 1777462220 | 16.11° C | 35% | 1025.1 hPa | 0 mm | - | 826 W/m² | - |
| 1777461620 | 16.11° C | 37% | 1025 hPa | 0 mm | - | 824 W/m² | - |
| 1777461019 | 16.11° C | 38% | 1025.1 hPa | 0 mm | - | 823 W/m² | - |
| 1777460420 | 15.56° C | 37% | 1025.1 hPa | 0 mm | - | 821 W/m² | - |
| 1777459820 | 15.56° C | 38% | 1025.1 hPa | 0 mm | - | 817 W/m² | - |
| 1777459220 | 15° C | 39% | 1025 hPa | 0 mm | - | 808 W/m² | - |
| 1777458620 | 15.56° C | 39% | 1025.2 hPa | 0 mm | - | 799 W/m² | - |
| 1777458020 | 15.56° C | 44% | 1025.2 hPa | 0 mm | - | 789 W/m² | - |
| 1777457420 | 15.56° C | 43% | 1025.3 hPa | 0 mm | - | 782 W/m² | - |
| 1777456820 | 15.56° C | 38% | 1025.4 hPa | 0 mm | - | 774 W/m² | - |
| 1777456220 | 14.44° C | 44% | 1025.4 hPa | 0 mm | - | 763 W/m² | - |
| 1777455619 | 14.44° C | 46% | 1025.4 hPa | 0 mm | - | 745 W/m² | - |
* Rain latest hour (hover to see other rain measurements)
** Current wind speed in m/s (hover to see current wind gust speed)